Time,TemperatureF,DewpointF,PressureIn,WindDirection,WindDirectionDegrees,WindSpeedMPH,WindSpeedGustMPH,Humidity,HourlyPrecipIn,Conditions,Clouds,dailyrainin,SoftwareType,DateUTC
2013-12-01 00:02:00,47.9,31.1,30.07,SSW,210,3.0,7.0,52,0.00,,---,0.00,VWS V14.01,2013-12-01 06:02:00,
2013-12-01 00:07:00,48.1,31.3,30.07,SW,221,0.0,6.0,52,0.00,,---,0.00,VWS V14.01,2013-12-01 06:07:00,
2013-12-01 00:12:00,48.1,31.3,30.07,SW,220,1.0,6.0,52,0.00,,---,0.00,VWS V14.01,2013-12-01 06:12:00,
2013-12-01 00:17:00,48.2,31.4,30.07,SW,224,3.0,6.0,52,0.00,,---,0.00,VWS V14.01,2013-12-01 06:17:00,
2013-12-01 00:22:00,48.3,31.5,30.07,SW,219,3.0,9.0,52,0.00,,---,0.00,VWS V14.01,2013-12-01 06:22:00,
2013-12-01 00:27:00,48.5,31.2,30.07,SW,227,0.0,9.0,51,0.00,,---,0.00,VWS V14.01,2013-12-01 06:27:00,
2013-12-01 00:32:00,48.5,31.2,30.06,WSW,238,2.0,9.0,51,0.00,,---,0.00,VWS V14.01,2013-12-01 06:32:00,
2013-12-01 00:37:00,48.4,31.1,30.06,WSW,247,0.0,5.0,51,0.00,,---,0.00,VWS V14.01,2013-12-01 06:37:00,
2013-12-01 00:42:00,48.4,31.1,30.06,SW,219,0.0,6.0,51,0.00,,---,0.00,VWS V14.01,2013-12-01 06:42:00,
2013-12-01 00:47:00,48.3,31.5,30.06,WSW,240,3.0,6.0,52,0.00,,---,0.00,VWS V14.01,2013-12-01 06:47:00,
2013-12-01 00:52:00,48.2,31.4,30.06,SW,221,3.0,6.0,52,0.00,,---,0.00,VWS V14.01,2013-12-01 06:52:00,
2013-12-01 00:57:00,48.1,31.3,30.06,SW,234,3.0,6.0,52,0.00,,---,0.00,VWS V14.01,2013-12-01 06:57:00,
2013-12-01 01:02:00,48.1,31.3,30.07,SW,223,3.0,6.0,52,0.00,,---,0.00,VWS V14.01,2013-12-01 07:02:00,
2013-12-01 01:07:00,47.9,31.1,30.07,SW,216,0.0,4.0,52,0.00,,---,0.00,VWS V14.01,2013-12-01 07:07:00,
2013-12-01 01:12:00,47.8,31.5,30.07,SE,131,0.0,5.0,53,0.00,,---,0.00,VWS V14.01,2013-12-01 07:12:00,
2013-12-01 01:17:00,47.8,31.5,30.06,SW,221,0.0,5.0,53,0.00,,---,0.00,VWS V14.01,2013-12-01 07:17:00,
2013-12-01 01:22:00,47.7,31.4,30.06,SW,217,1.0,5.0,53,0.00,,---,0.00,VWS V14.01,2013-12-01 07:22:00,
2013-12-01 01:27:00,47.6,31.8,30.06,SSW,211,0.0,5.0,54,0.00,,---,0.00,VWS V14.01,2013-12-01 07:27:00,
2013-12-01 01:32:00,47.5,31.7,30.06,SSW,211,0.0,5.0,54,0.00,,---,0.00,VWS V14.01,2013-12-01 07:32:00,
2013-12-01 01:37:00,47.4,31.6,30.06,SSW,211,0.0,1.0,54,0.00,,---,0.00,VWS V14.01,2013-12-01 07:37:00,
2013-12-01 01:42:00,47.4,31.6,30.06,SSW,213,1.0,3.0,54,0.00,,---,0.00,VWS V14.01,2013-12-01 07:42:00,
2013-12-01 01:47:00,47.4,31.6,30.06,SW,231,1.0,4.0,54,0.00,,---,0.00,VWS V14.01,2013-12-01 07:47:00,
2013-12-01 01:52:00,47.4,31.6,30.06,South,178,0.0,4.0,54,0.00,,---,0.00,VWS V14.01,2013-12-01 07:52:00,
2013-12-01 01:57:00,47.5,32.2,30.06,South,183,2.0,4.0,55,0.00,,---,0.00,VWS V14.01,2013-12-01 07:57:00,
2013-12-01 02:02:00,47.5,32.2,30.06,South,182,0.0,4.0,55,0.00,,---,0.00,VWS V14.01,2013-12-01 08:02:00,
2013-12-01 02:07:00,47.4,32.1,30.06,South,188,0.0,1.0,55,0.00,,---,0.00,VWS V14.01,2013-12-01 08:07:00,
2013-12-01 02:12:00,47.4,31.6,30.06,South,178,0.0,3.0,54,0.00,,---,0.00,VWS V14.01,2013-12-01 08:12:00,
2013-12-01 02:17:00,47.5,32.2,30.06,South,182,1.0,4.0,55,0.00,,---,0.00,VWS V14.01,2013-12-01 08:17:00,
2013-12-01 02:22:00,47.5,32.2,30.06,SSW,201,0.0,4.0,55,0.00,,---,0.00,VWS V14.01,2013-12-01 08:22:00,
2013-12-01 02:27:00,47.5,32.2,30.06,SSW,213,0.0,4.0,55,0.00,,---,0.00,VWS V14.01,2013-12-01 08:27:00,
2013-12-01 02:32:00,47.5,32.2,30.05,SW,214,0.0,4.0,55,0.00,,---,0.00,VWS V14.01,2013-12-01 08:32:00,
2013-12-01 02:37:00,47.5,32.2,30.05,SW,221,0.0,4.0,55,0.00,,---,0.00,VWS V14.01,2013-12-01 08:37:00,
2013-12-01 02:42:00,47.5,32.2,30.05,SW,221,0.0,4.0,55,0.00,,---,0.00,VWS V14.01,2013-12-01 08:42:00,
2013-12-01 02:47:00,47.2,31.9,30.04,SW,221,0.0,4.0,55,0.00,,---,0.00,VWS V14.01,2013-12-01 08:47:00,
2013-12-01 02:52:00,47.0,32.1,30.04,SW,221,0.0,4.0,56,0.00,,---,0.00,VWS V14.01,2013-12-01 08:52:00,
2013-12-01 02:57:00,46.8,32.0,30.04,SW,221,0.0,4.0,56,0.00,,---,0.00,VWS V14.01,2013-12-01 08:57:00,
2013-12-01 03:01:00,46.6,31.8,30.04,SW,221,1.0,4.0,56,0.00,,---,0.00,VWS V14.01,2013-12-01 09:01:00,
2013-12-01 03:06:00,46.4,31.6,30.04,SW,221,2.0,3.0,56,0.00,,---,0.00,VWS V14.01,2013-12-01 09:06:00,
2013-12-01 03:11:00,46.3,31.9,30.04,SSW,201,2.0,4.0,57,0.00,,---,0.00,VWS V14.01,2013-12-01 09:11:00,
2013-12-01 03:16:00,46.3,31.9,30.04,SSW,201,0.0,4.0,57,0.00,,---,0.00,VWS V14.01,2013-12-01 09:16:00,
2013-12-01 03:21:00,46.1,31.7,30.04,SSW,201,1.0,4.0,57,0.00,,---,0.00,VWS V14.01,2013-12-01 09:21:00,
2013-12-01 03:26:00,45.9,32.0,30.04,SSW,201,0.0,4.0,58,0.00,,---,0.00,VWS V14.01,2013-12-01 09:26:00,
2013-12-01 03:31:00,45.6,31.7,30.04,SSW,201,2.0,4.0,58,0.00,,---,0.00,VWS V14.01,2013-12-01 09:31:00,
2013-12-01 03:36:00,45.4,31.9,30.03,SSW,201,0.0,2.0,59,0.00,,---,0.00,VWS V14.01,2013-12-01 09:36:00,
2013-12-01 03:41:00,45.3,31.8,30.03,SSW,205,0.0,4.0,59,0.00,,---,0.00,VWS V14.01,2013-12-01 09:41:00,
2013-12-01 03:46:00,45.2,31.7,30.03,SSW,205,0.0,4.0,59,0.00,,---,0.00,VWS V14.01,2013-12-01 09:46:00,
2013-12-01 03:51:00,45.2,31.7,30.03,SSW,206,0.0,4.0,59,0.00,,---,0.00,VWS V14.01,2013-12-01 09:51:00,
2013-12-01 03:56:00,45.2,31.7,30.03,SSW,206,1.0,4.0,59,0.00,,---,0.00,VWS V14.01,2013-12-01 09:56:00,
2013-12-01 04:01:00,45.2,32.2,30.03,SSW,206,0.0,4.0,60,0.00,,---,0.00,VWS V14.01,2013-12-01 10:01:00,
2013-12-01 04:06:00,45.1,32.1,30.03,SSW,206,0.0,0.0,60,0.00,,---,0.00,VWS V14.01,2013-12-01 10:06:00,
2013-12-01 04:11:00,45.1,32.1,30.03,SW,219,0.0,4.0,60,0.00,,---,0.00,VWS V14.01,2013-12-01 10:11:00,
2013-12-01 04:16:00,45.4,32.3,30.03,SW,219,0.0,4.0,60,0.00,,---,0.00,VWS V14.01,2013-12-01 10:16:00,
2013-12-01 04:21:00,45.5,32.4,30.03,SW,219,0.0,4.0,60,0.00,,---,0.00,VWS V14.01,2013-12-01 10:21:00,
2013-12-01 04:26:00,45.7,32.6,30.03,SSW,194,0.0,4.0,60,0.00,,---,0.00,VWS V14.01,2013-12-01 10:26:00,
2013-12-01 04:31:00,45.9,32.8,30.03,SSW,194,0.0,4.0,60,0.00,,---,0.00,VWS V14.01,2013-12-01 10:31:00,
2013-12-01 04:36:00,46.1,32.6,30.03,SSE,161,3.0,3.0,59,0.00,,---,0.00,VWS V14.01,2013-12-01 10:36:00,
2013-12-01 04:41:00,46.2,33.1,30.03,South,171,0.0,3.0,60,0.00,,---,0.00,VWS V14.01,2013-12-01 10:41:00,
2013-12-01 04:46:00,46.3,32.8,30.03,SSW,207,0.0,3.0,59,0.00,,---,0.00,VWS V14.01,2013-12-01 10:46:00,
2013-12-01 04:51:00,46.5,33.0,30.03,SSW,207,3.0,3.0,59,0.00,,---,0.00,VWS V14.01,2013-12-01 10:51:00,
2013-12-01 04:56:00,46.6,33.0,30.03,SW,216,3.0,5.0,59,0.00,,---,0.00,VWS V14.01,2013-12-01 10:56:00,
2013-12-01 05:01:00,46.8,33.2,30.03,SW,224,2.0,5.0,59,0.00,,---,0.00,VWS V14.01,2013-12-01 11:01:00,
2013-12-01 05:06:00,46.9,32.9,30.03,SW,225,1.0,4.0,58,0.00,,---,0.00,VWS V14.01,2013-12-01 11:06:00,
2013-12-01 05:11:00,47.0,33.0,30.03,SW,225,0.0,4.0,58,0.00,,---,0.00,VWS V14.01,2013-12-01 11:11:00,
2013-12-01 05:16:00,47.1,33.1,30.03,SW,226,0.0,4.0,58,0.00,,---,0.00,VWS V14.01,2013-12-01 11:16:00,
2013-12-01 05:21:00,47.1,33.1,30.03,SW,236,0.0,4.0,58,0.00,,---,0.00,VWS V14.01,2013-12-01 11:21:00,
2013-12-01 05:26:00,47.2,33.2,30.03,SW,232,0.0,4.0,58,0.00,,---,0.00,VWS V14.01,2013-12-01 11:26:00,
2013-12-01 05:31:00,47.2,33.2,30.03,SW,236,2.0,4.0,58,0.00,,---,0.00,VWS V14.01,2013-12-01 11:31:00,
2013-12-01 05:36:00,47.3,33.7,30.03,SW,227,3.0,3.0,59,0.00,,---,0.00,VWS V14.01,2013-12-01 11:36:00,
2013-12-01 05:41:00,47.4,33.8,30.03,SW,232,2.0,6.0,59,0.00,,---,0.00,VWS V14.01,2013-12-01 11:41:00,
2013-12-01 05:46:00,47.4,33.8,30.03,SW,222,0.0,6.0,59,0.00,,---,0.00,VWS V14.01,2013-12-01 11:46:00,
2013-12-01 05:51:00,47.5,33.9,30.03,South,182,0.0,6.0,59,0.00,,---,0.00,VWS V14.01,2013-12-01 11:51:00,
2013-12-01 05:56:00,47.5,33.9,30.03,SW,228,2.0,6.0,59,0.00,,---,0.00,VWS V14.01,2013-12-01 11:56:00,
2013-12-01 06:01:00,47.6,34.0,30.03,SW,229,0.0,6.0,59,0.00,,---,0.00,VWS V14.01,2013-12-01 12:01:00,
2013-12-01 06:06:00,47.6,34.0,30.03,SW,229,0.0,1.0,59,0.00,,---,0.00,VWS V14.01,2013-12-01 12:06:00,
2013-12-01 06:11:00,47.6,34.0,30.03,SW,229,0.0,4.0,59,0.00,,---,0.00,VWS V14.01,2013-12-01 12:11:00,
2013-12-01 06:16:00,47.7,34.1,30.03,SW,228,0.0,4.0,59,0.00,,---,0.00,VWS V14.01,2013-12-01 12:16:00,
2013-12-01 06:21:00,47.7,34.1,30.03,SW,228,0.0,4.0,59,0.00,,---,0.00,VWS V14.01,2013-12-01 12:21:00,
2013-12-01 06:26:00,47.7,34.1,30.03,SW,229,0.0,4.0,59,0.00,,---,0.00,VWS V14.01,2013-12-01 12:26:00,
2013-12-01 06:31:00,47.7,34.1,30.03,SW,229,0.0,4.0,59,0.00,,---,0.00,VWS V14.01,2013-12-01 12:31:00,
2013-12-01 06:36:00,47.8,34.2,30.03,South,189,0.0,5.0,59,0.00,,---,0.00,VWS V14.01,2013-12-01 12:36:00,
2013-12-01 06:41:00,47.8,34.2,30.03,SSW,192,0.0,5.0,59,0.00,,---,0.00,VWS V14.01,2013-12-01 12:41:00,
2013-12-01 06:46:00,47.8,34.2,30.03,SW,236,0.0,5.0,59,0.00,,---,0.00,VWS V14.01,2013-12-01 12:46:00,
2013-12-01 06:51:00,47.8,34.2,30.03,SW,236,0.0,5.0,59,0.00,,---,0.00,VWS V14.01,2013-12-01 12:51:00,
2013-12-01 06:56:00,47.8,34.2,30.03,SW,236,0.0,5.0,59,0.00,,---,0.00,VWS V14.01,2013-12-01 12:56:00,
2013-12-01 07:01:00,47.8,34.2,30.03,SW,236,0.0,5.0,59,0.00,,---,0.00,VWS V14.01,2013-12-01 13:01:00,
2013-12-01 07:06:00,47.8,34.2,30.03,WSW,237,0.0,0.0,59,0.00,,---,0.00,VWS V14.01,2013-12-01 13:06:00,
2013-12-01 07:11:00,47.8,34.2,30.03,SW,236,0.0,1.0,59,0.00,,---,0.00,VWS V14.01,2013-12-01 13:11:00,
2013-12-01 07:16:00,47.7,34.1,30.03,SW,236,0.0,1.0,59,0.00,,---,0.00,VWS V14.01,2013-12-01 13:16:00,
2013-12-01 07:21:00,47.7,34.5,30.03,SW,224,0.0,1.0,60,0.00,,---,0.00,VWS V14.01,2013-12-01 13:21:00,
2013-12-01 07:26:00,47.6,34.4,30.03,SW,223,0.0,1.0,60,0.00,,---,0.00,VWS V14.01,2013-12-01 13:26:00,
2013-12-01 07:31:00,47.6,34.0,30.03,South,184,0.0,2.0,59,0.00,,---,0.00,VWS V14.01,2013-12-01 13:31:00,
2013-12-01 07:36:00,47.7,34.1,30.03,South,184,0.0,1.0,59,0.00,,---,0.00,VWS V14.01,2013-12-01 13:36:00,
2013-12-01 07:41:00,47.8,34.6,30.03,South,186,0.0,1.0,60,0.00,,---,0.00,VWS V14.01,2013-12-01 13:41:00,
2013-12-01 07:46:00,47.8,34.6,30.03,South,184,0.0,1.0,60,0.00,,---,0.00,VWS V14.01,2013-12-01 13:46:00,
2013-12-01 07:51:00,47.8,34.6,30.03,South,182,0.0,1.0,60,0.00,,---,0.00,VWS V14.01,2013-12-01 13:51:00,
2013-12-01 07:56:00,47.8,34.6,30.03,South,182,0.0,1.0,60,0.00,,---,0.00,VWS V14.01,2013-12-01 13:56:00,
2013-12-01 08:01:00,47.8,34.6,30.04,South,184,0.0,1.0,60,0.00,,---,0.00,VWS V14.01,2013-12-01 14:01:00,
2013-12-01 08:06:00,47.8,34.6,30.04,South,182,0.0,0.0,60,0.00,,---,0.00,VWS V14.01,2013-12-01 14:06:00,
2013-12-01 08:11:00,47.9,34.7,30.04,South,183,1.0,1.0,60,0.00,,---,0.00,VWS V14.01,2013-12-01 14:11:00,
2013-12-01 08:16:00,47.9,34.7,30.04,South,183,0.0,2.0,60,0.00,,---,0.00,VWS V14.01,2013-12-01 14:16:00,
2013-12-01 08:21:00,48.0,34.8,30.04,South,185,0.0,2.0,60,0.00,,---,0.00,VWS V14.01,2013-12-01 14:21:00,
2013-12-01 08:26:00,48.1,34.5,30.04,South,188,0.0,3.0,59,0.00,,---,0.00,VWS V14.01,2013-12-01 14:26:00,
2013-12-01 08:31:00,48.2,35.0,30.03,South,188,0.0,3.0,60,0.00,,---,0.00,VWS V14.01,2013-12-01 14:31:00,
2013-12-01 08:36:00,48.3,35.1,30.03,South,186,0.0,1.0,60,0.00,,---,0.00,VWS V14.01,2013-12-01 14:36:00,
2013-12-01 08:41:00,48.3,34.7,30.03,South,187,0.0,1.0,59,0.00,,---,0.00,VWS V14.01,2013-12-01 14:41:00,
2013-12-01 08:46:00,48.5,34.8,30.03,South,188,0.0,1.0,59,0.00,,---,0.00,VWS V14.01,2013-12-01 14:46:00,
2013-12-01 08:51:00,48.7,35.0,30.03,South,187,0.0,1.0,59,0.00,,---,0.00,VWS V14.01,2013-12-01 14:51:00,
2013-12-01 08:56:00,48.8,35.1,30.03,SW,223,0.0,3.0,59,0.00,,---,0.00,VWS V14.01,2013-12-01 14:56:00,
2013-12-01 09:01:00,49.0,35.3,30.03,SW,216,0.0,4.0,59,0.00,,---,0.00,VWS V14.01,2013-12-01 15:01:00,
2013-12-01 09:06:00,49.2,35.1,30.03,SW,217,0.0,4.0,58,0.00,,---,0.00,VWS V14.01,2013-12-01 15:06:00,
2013-12-01 09:11:00,49.3,35.2,30.03,SW,227,0.0,4.0,58,0.00,,---,0.00,VWS V14.01,2013-12-01 15:11:00,
2013-12-01 09:16:00,49.5,35.3,30.03,SW,228,0.0,4.0,58,0.00,,---,0.00,VWS V14.01,2013-12-01 15:16:00,
2013-12-01 09:21:00,49.6,35.5,30.03,SW,229,0.0,4.0,58,0.00,,---,0.00,VWS V14.01,2013-12-01 15:21:00,
2013-12-01 09:26:00,49.8,35.2,30.03,SW,234,0.0,4.0,57,0.00,,---,0.00,VWS V14.01,2013-12-01 15:26:00,
2013-12-01 09:31:00,50.0,35.4,30.03,SW,234,0.0,4.0,57,0.00,,---,0.00,VWS V14.01,2013-12-01 15:31:00,
2013-12-01 09:36:00,50.2,35.6,30.03,SW,234,0.0,4.0,57,0.00,,---,0.00,VWS V14.01,2013-12-01 15:36:00,
2013-12-01 09:41:00,50.4,35.8,30.03,SW,227,0.0,4.0,57,0.00,,---,0.00,VWS V14.01,2013-12-01 15:41:00,
2013-12-01 09:46:00,50.6,35.9,30.02,SW,233,0.0,4.0,57,0.00,,---,0.00,VWS V14.01,2013-12-01 15:46:00,
2013-12-01 09:51:00,50.8,35.7,30.02,SSW,200,0.0,4.0,56,0.00,,---,0.00,VWS V14.01,2013-12-01 15:51:00,
2013-12-01 09:56:00,51.0,35.9,30.02,SW,223,0.0,4.0,56,0.00,,---,0.00,VWS V14.01,2013-12-01 15:56:00,
2013-12-01 10:01:00,51.2,36.1,30.03,West,265,0.0,4.0,56,0.00,,---,0.00,VWS V14.01,2013-12-01 16:01:00,
2013-12-01 10:06:00,51.4,36.7,30.03,SW,236,1.0,2.0,57,0.00,,---,0.00,VWS V14.01,2013-12-01 16:06:00,
2013-12-01 10:11:00,51.5,36.3,30.03,SSE,155,0.0,3.0,56,0.00,,---,0.00,VWS V14.01,2013-12-01 16:11:00,
2013-12-01 10:16:00,51.7,36.5,30.02,WSW,254,1.0,3.0,56,0.00,,---,0.00,VWS V14.01,2013-12-01 16:16:00,
2013-12-01 10:21:00,51.7,36.5,30.02,SSW,213,0.0,4.0,56,0.00,,---,0.00,VWS V14.01,2013-12-01 16:21:00,
2013-12-01 10:26:00,51.8,36.6,30.02,SSW,208,0.0,4.0,56,0.00,,---,0.00,VWS V14.01,2013-12-01 16:26:00,
2013-12-01 10:31:00,51.9,36.7,30.02,SW,234,3.0,4.0,56,0.00,,---,0.00,VWS V14.01,2013-12-01 16:31:00,
2013-12-01 10:36:00,51.9,36.7,30.02,SW,216,2.0,5.0,56,0.00,,---,0.00,VWS V14.01,2013-12-01 16:36:00,
2013-12-01 10:41:00,52.1,36.9,30.02,WSW,251,1.0,5.0,56,0.00,,---,0.00,VWS V14.01,2013-12-01 16:41:00,
2013-12-01 10:46:00,52.2,37.0,30.01,WNW,284,4.0,5.0,56,0.00,,---,0.00,VWS V14.01,2013-12-01 16:46:00,
2013-12-01 10:51:00,52.2,37.0,30.01,SW,225,0.0,5.0,56,0.00,,---,0.00,VWS V14.01,2013-12-01 16:51:00,
2013-12-01 10:56:00,52.4,37.6,30.01,SW,225,0.0,5.0,57,0.00,,---,0.00,VWS V14.01,2013-12-01 16:56:00,
2013-12-01 11:01:00,52.6,37.4,30.00,West,281,0.0,5.0,56,0.00,,---,0.00,VWS V14.01,2013-12-01 17:01:00,
2013-12-01 11:06:00,52.8,37.5,30.00,West,279,0.0,1.0,56,0.00,,---,0.00,VWS V14.01,2013-12-01 17:06:00,
2013-12-01 11:11:00,53.1,37.8,30.00,WSW,253,0.0,4.0,56,0.00,,---,0.00,VWS V14.01,2013-12-01 17:11:00,
2013-12-01 11:16:00,53.0,37.7,30.00,SW,232,0.0,5.0,56,0.00,,---,0.00,VWS V14.01,2013-12-01 17:16:00,
2013-12-01 11:21:00,52.9,38.1,30.00,SSW,194,0.0,5.0,57,0.00,,---,0.00,VWS V14.01,2013-12-01 17:21:00,
2013-12-01 11:26:00,53.1,38.3,30.00,SSW,193,0.0,5.0,57,0.00,,---,0.00,VWS V14.01,2013-12-01 17:26:00,
2013-12-01 11:31:00,53.2,37.9,29.99,SW,221,2.0,5.0,56,0.00,,---,0.00,VWS V14.01,2013-12-01 17:31:00,
2013-12-01 11:36:00,53.2,37.9,29.99,SW,230,0.0,3.0,56,0.00,,---,0.00,VWS V14.01,2013-12-01 17:36:00,
2013-12-01 11:41:00,53.2,38.4,29.99,SSW,211,0.0,3.0,57,0.00,,---,0.00,VWS V14.01,2013-12-01 17:41:00,
2013-12-01 11:46:00,53.1,37.8,29.98,West,268,0.0,3.0,56,0.00,,---,0.00,VWS V14.01,2013-12-01 17:46:00,
2013-12-01 11:51:00,53.2,38.4,29.98,WSW,248,1.0,3.0,57,0.00,,---,0.00,VWS V14.01,2013-12-01 17:51:00,
2013-12-01 11:56:00,53.2,38.4,29.98,WSW,248,0.0,3.0,57,0.00,,---,0.00,VWS V14.01,2013-12-01 17:56:00,
2013-12-01 12:01:00,53.3,38.0,29.97,WSW,238,0.0,4.0,56,0.00,,---,0.00,VWS V14.01,2013-12-01 18:01:00,
2013-12-01 12:06:00,53.3,38.5,29.97,WSW,238,0.0,2.0,57,0.00,,---,0.00,VWS V14.01,2013-12-01 18:06:00,
2013-12-01 12:11:00,53.4,38.6,29.97,WSW,238,0.0,3.0,57,0.00,,---,0.00,VWS V14.01,2013-12-01 18:11:00,
2013-12-01 12:16:00,53.7,38.8,29.96,West,273,4.0,4.0,57,0.00,,---,0.00,VWS V14.01,2013-12-01 18:16:00,
2013-12-01 12:21:00,53.8,38.9,29.96,South,170,4.0,4.0,57,0.00,,---,0.00,VWS V14.01,2013-12-01 18:21:00,
2013-12-01 12:26:00,53.9,39.0,29.96,South,171,0.0,4.0,57,0.00,,---,0.00,VWS V14.01,2013-12-01 18:26:00,
2013-12-01 12:32:00,54.2,38.9,29.95,South,171,0.0,4.0,56,0.00,,---,0.00,VWS V14.01,2013-12-01 18:32:00,
2013-12-01 12:36:00,54.3,39.0,29.95,WSW,248,2.0,4.0,56,0.00,,---,0.00,VWS V14.01,2013-12-01 18:36:00,
2013-12-01 12:41:00,54.2,38.9,29.95,SW,229,0.0,4.0,56,0.00,,---,0.00,VWS V14.01,2013-12-01 18:41:00,
2013-12-01 12:46:00,54.1,39.2,29.94,South,184,0.0,4.0,57,0.00,,---,0.00,VWS V14.01,2013-12-01 18:46:00,
2013-12-01 12:51:00,54.0,39.1,29.94,South,169,2.0,4.0,57,0.00,,---,0.00,VWS V14.01,2013-12-01 18:51:00,
2013-12-01 12:57:00,54.1,38.8,29.94,SSW,211,0.0,4.0,56,0.00,,---,0.00,VWS V14.01,2013-12-01 18:57:00,
2013-12-01 13:02:00,54.1,39.2,29.93,South,176,0.0,4.0,57,0.00,,---,0.00,VWS V14.01,2013-12-01 19:02:00,
2013-12-01 13:07:00,54.2,39.3,29.93,SE,139,0.0,3.0,57,0.00,,---,0.00,VWS V14.01,2013-12-01 19:07:00,
2013-12-01 13:12:00,54.2,39.3,29.93,South,189,4.0,4.0,57,0.00,,---,0.00,VWS V14.01,2013-12-01 19:12:00,
2013-12-01 13:17:00,54.2,39.3,29.92,SSE,151,4.0,4.0,57,0.00,,---,0.00,VWS V14.01,2013-12-01 19:17:00,
2013-12-01 13:22:00,54.0,39.1,29.92,South,172,2.0,6.0,57,0.00,,---,0.00,VWS V14.01,2013-12-01 19:22:00,
2013-12-01 13:27:00,54.0,39.6,29.92,South,173,0.0,6.0,58,0.00,,---,0.00,VWS V14.01,2013-12-01 19:27:00,
2013-12-01 13:32:00,54.3,39.4,29.92,SSE,155,0.0,6.0,57,0.00,,---,0.00,VWS V14.01,2013-12-01 19:32:00,
2013-12-01 13:37:00,54.6,39.7,29.92,SW,225,0.0,4.0,57,0.00,,---,0.00,VWS V14.01,2013-12-01 19:37:00,
2013-12-01 13:38:00,54.8,40.3,29.92,SSE,168,1.0,4.0,58,0.00,,---,0.00,VWS V14.01,2013-12-01 19:38:00,
2013-12-01 13:43:00,54.9,40.0,29.92,SSE,161,0.0,5.0,57,0.00,,---,0.00,VWS V14.01,2013-12-01 19:43:00,
2013-12-01 13:48:00,54.8,39.9,29.92,ESE,121,0.0,5.0,57,0.00,,---,0.00,VWS V14.01,2013-12-01 19:48:00,
2013-12-01 13:53:00,54.8,39.9,29.92,SSW,212,0.0,6.0,57,0.00,,---,0.00,VWS V14.01,2013-12-01 19:53:00,
2013-12-01 13:58:00,54.9,40.4,29.92,South,188,0.0,6.0,58,0.00,,---,0.00,VWS V14.01,2013-12-01 19:58:00,
2013-12-01 14:03:00,55.1,40.2,29.92,SSW,205,0.0,0.0,57,0.00,,---,0.00,VWS V14.01,2013-12-01 20:03:00,
2013-12-01 14:08:00,55.2,40.2,29.92,SSW,205,0.0,1.0,57,0.00,,---,0.00,VWS V14.01,2013-12-01 20:08:00,
2013-12-01 14:13:00,55.3,40.3,29.92,WSW,239,5.0,6.0,57,0.00,,---,0.00,VWS V14.01,2013-12-01 20:13:00,
2013-12-01 14:18:00,55.1,40.2,29.91,SSW,209,0.0,6.0,57,0.00,,---,0.00,VWS V14.01,2013-12-01 20:18:00,
2013-12-01 14:23:00,55.1,40.6,29.91,SSW,192,4.0,6.0,58,0.00,,---,0.00,VWS V14.01,2013-12-01 20:23:00,
2013-12-01 14:28:00,54.9,40.4,29.91,South,171,0.0,6.0,58,0.00,,---,0.00,VWS V14.01,2013-12-01 20:28:00,
2013-12-01 14:33:00,54.8,40.3,29.90,SSE,167,1.0,4.0,58,0.00,,---,0.00,VWS V14.01,2013-12-01 20:33:00,
2013-12-01 14:38:00,54.9,40.4,29.90,South,169,0.0,5.0,58,0.00,,---,0.00,VWS V14.01,2013-12-01 20:38:00,
2013-12-01 14:43:00,55.0,40.5,29.90,South,172,0.0,5.0,58,0.00,,---,0.00,VWS V14.01,2013-12-01 20:43:00,
2013-12-01 14:48:00,55.2,40.7,29.90,South,173,0.0,5.0,58,0.00,,---,0.00,VWS V14.01,2013-12-01 20:48:00,
2013-12-01 14:53:00,55.0,40.5,29.90,SSE,150,0.0,6.0,58,0.00,,---,0.00,VWS V14.01,2013-12-01 20:53:00,
2013-12-01 14:58:00,54.8,40.3,29.90,SSE,153,0.0,6.0,58,0.00,,---,0.00,VWS V14.01,2013-12-01 20:58:00,
2013-12-01 15:03:00,54.8,40.8,29.90,SSE,163,0.0,2.0,59,0.00,,---,0.00,VWS V14.01,2013-12-01 21:03:00,
2013-12-01 15:08:00,54.7,40.7,29.90,South,172,0.0,5.0,59,0.00,,---,0.00,VWS V14.01,2013-12-01 21:08:00,
2013-12-01 15:13:00,54.7,40.7,29.90,SSE,153,0.0,5.0,59,0.00,,---,0.00,VWS V14.01,2013-12-01 21:13:00,
2013-12-01 15:18:00,54.8,40.8,29.89,SSE,155,0.0,5.0,59,0.00,,---,0.00,VWS V14.01,2013-12-01 21:18:00,
2013-12-01 15:23:00,54.8,40.3,29.89,South,172,0.0,5.0,58,0.00,,---,0.00,VWS V14.01,2013-12-01 21:23:00,
2013-12-01 15:28:00,54.5,40.0,29.89,SSE,159,3.0,5.0,58,0.00,,---,0.00,VWS V14.01,2013-12-01 21:28:00,
2013-12-01 15:33:00,54.2,40.2,29.89,SE,137,0.0,1.0,59,0.00,,---,0.00,VWS V14.01,2013-12-01 21:33:00,
2013-12-01 15:38:00,54.1,40.1,29.89,SSE,157,0.0,3.0,59,0.00,,---,0.00,VWS V14.01,2013-12-01 21:38:00,
2013-12-01 15:43:00,53.9,40.3,29.89,South,171,0.0,5.0,60,0.00,,---,0.00,VWS V14.01,2013-12-01 21:43:00,
2013-12-01 15:48:00,53.9,40.3,29.88,SE,144,0.0,5.0,60,0.00,,---,0.00,VWS V14.01,2013-12-01 21:48:00,
2013-12-01 15:53:00,53.7,40.2,29.88,SSE,167,0.0,5.0,60,0.00,,---,0.00,VWS V14.01,2013-12-01 21:53:00,
2013-12-01 15:58:00,53.6,40.5,29.88,SSE,167,0.0,5.0,61,0.00,,---,0.00,VWS V14.01,2013-12-01 21:58:00,
2013-12-01 16:03:00,53.4,40.3,29.88,SSE,167,0.0,2.0,61,0.00,,---,0.00,VWS V14.01,2013-12-01 22:03:00,
2013-12-01 16:08:00,53.2,40.1,29.88,SSE,167,0.0,2.0,61,0.00,,---,0.00,VWS V14.01,2013-12-01 22:08:00,
2013-12-01 16:13:00,53.0,40.3,29.88,SSE,167,0.0,2.0,62,0.00,,---,0.00,VWS V14.01,2013-12-01 22:13:00,
2013-12-01 16:18:00,52.7,40.1,29.88,SSE,168,0.0,2.0,62,0.00,,---,0.00,VWS V14.01,2013-12-01 22:18:00,
2013-12-01 16:23:00,52.4,39.8,29.88,SSE,167,0.0,2.0,62,0.00,,---,0.00,VWS V14.01,2013-12-01 22:23:00,
2013-12-01 16:28:00,52.2,40.0,29.88,SSE,167,0.0,2.0,63,0.00,,---,0.00,VWS V14.01,2013-12-01 22:28:00,
2013-12-01 16:33:00,51.9,39.7,29.88,SSE,167,0.0,0.0,63,0.00,,---,0.00,VWS V14.01,2013-12-01 22:33:00,
2013-12-01 16:38:00,51.5,39.7,29.88,SSE,168,0.0,0.0,64,0.00,,---,0.00,VWS V14.01,2013-12-01 22:38:00,
2013-12-01 16:43:00,51.3,40.0,29.88,SSE,167,0.0,0.0,65,0.00,,---,0.00,VWS V14.01,2013-12-01 22:43:00,
2013-12-01 16:48:00,51.0,39.7,29.87,SSE,167,0.0,0.0,65,0.00,,---,0.00,VWS V14.01,2013-12-01 22:48:00,
2013-12-01 16:53:00,50.6,39.7,29.87,SSE,167,0.0,0.0,66,0.00,,---,0.00,VWS V14.01,2013-12-01 22:53:00,
2013-12-01 16:58:00,50.2,39.3,29.87,SSE,167,0.0,0.0,66,0.00,,---,0.00,VWS V14.01,2013-12-01 22:58:00,
2013-12-01 17:03:00,49.8,39.3,29.87,SSE,167,0.0,0.0,67,0.00,,---,0.00,VWS V14.01,2013-12-01 23:03:00,
2013-12-01 17:08:00,49.4,39.3,29.87,SSE,167,0.0,0.0,68,0.00,,---,0.00,VWS V14.01,2013-12-01 23:08:00,
2013-12-01 17:13:00,49.0,38.9,29.87,SSE,167,0.0,0.0,68,0.00,,---,0.00,VWS V14.01,2013-12-01 23:13:00,
2013-12-01 17:18:00,48.7,39.0,29.87,SSE,167,0.0,0.0,69,0.00,,---,0.00,VWS V14.01,2013-12-01 23:18:00,
2013-12-01 17:23:00,48.5,38.8,29.87,SSE,167,0.0,0.0,69,0.00,,---,0.00,VWS V14.01,2013-12-01 23:23:00,
2013-12-01 17:28:00,48.2,38.9,29.87,SSE,167,0.0,0.0,70,0.00,,---,0.00,VWS V14.01,2013-12-01 23:28:00,
2013-12-01 17:33:00,47.9,38.6,29.87,SSE,168,0.0,0.0,70,0.00,,---,0.00,VWS V14.01,2013-12-01 23:33:00,
2013-12-01 17:38:00,47.7,38.8,29.87,SSE,167,0.0,0.0,71,0.00,,---,0.00,VWS V14.01,2013-12-01 23:38:00,
2013-12-01 17:43:00,47.3,38.4,29.87,SSE,167,0.0,0.0,71,0.00,,---,0.00,VWS V14.01,2013-12-01 23:43:00,
2013-12-01 17:48:00,46.8,38.3,29.87,SSE,167,0.0,0.0,72,0.00,,---,0.00,VWS V14.01,2013-12-01 23:48:00,
2013-12-01 17:53:00,46.3,38.1,29.87,SSE,168,0.0,0.0,73,0.00,,---,0.00,VWS V14.01,2013-12-01 23:53:00,
2013-12-01 17:58:00,45.7,37.9,29.87,SSE,167,0.0,0.0,74,0.00,,---,0.00,VWS V14.01,2013-12-01 23:58:00,
2013-12-01 18:03:00,45.4,37.6,29.87,SSE,167,0.0,0.0,74,0.00,,---,0.00,VWS V14.01,2013-12-02 00:03:00,
2013-12-01 18:08:00,45.2,37.8,29.87,SSE,168,0.0,0.0,75,0.00,,---,0.00,VWS V14.01,2013-12-02 00:08:00,
2013-12-01 18:13:00,45.1,38.0,29.87,SSE,168,0.0,0.0,76,0.00,,---,0.00,VWS V14.01,2013-12-02 00:13:00,
2013-12-01 18:18:00,45.1,38.3,29.87,SSE,167,0.0,0.0,77,0.00,,---,0.00,VWS V14.01,2013-12-02 00:18:00,
2013-12-01 18:23:00,45.0,38.2,29.87,SSE,168,0.0,0.0,77,0.00,,---,0.00,VWS V14.01,2013-12-02 00:23:00,
2013-12-01 18:28:00,45.0,38.2,29.87,SSE,167,0.0,0.0,77,0.00,,---,0.00,VWS V14.01,2013-12-02 00:28:00,
2013-12-01 18:33:00,44.9,38.1,29.87,SSE,167,0.0,0.0,77,0.00,,---,0.00,VWS V14.01,2013-12-02 00:33:00,
2013-12-01 18:38:00,44.8,38.0,29.87,SSE,167,0.0,0.0,77,0.00,,---,0.00,VWS V14.01,2013-12-02 00:38:00,
2013-12-01 18:43:00,44.7,38.3,29.87,SSE,167,0.0,0.0,78,0.00,,---,0.00,VWS V14.01,2013-12-02 00:43:00,
2013-12-01 18:48:00,44.6,38.2,29.87,SSE,168,0.0,0.0,78,0.00,,---,0.00,VWS V14.01,2013-12-02 00:48:00,
2013-12-01 18:53:00,44.6,38.2,29.87,SSE,167,0.0,0.0,78,0.00,,---,0.00,VWS V14.01,2013-12-02 00:53:00,
2013-12-01 18:58:00,44.3,37.9,29.87,SSE,167,0.0,0.0,78,0.00,,---,0.00,VWS V14.01,2013-12-02 00:58:00,
2013-12-01 19:03:00,44.2,37.8,29.87,SSE,167,0.0,0.0,78,0.00,,---,0.00,VWS V14.01,2013-12-02 01:03:00,
2013-12-01 19:08:00,44.1,37.7,29.87,SSE,168,0.0,0.0,78,0.00,,---,0.00,VWS V14.01,2013-12-02 01:08:00,
2013-12-01 19:13:00,44.0,37.9,29.87,SSE,167,0.0,0.0,79,0.00,,---,0.00,VWS V14.01,2013-12-02 01:13:00,
2013-12-01 19:18:00,44.0,37.9,29.87,SSE,167,0.0,0.0,79,0.00,,---,0.00,VWS V14.01,2013-12-02 01:18:00,
2013-12-01 19:23:00,43.9,37.8,29.87,SSE,167,0.0,0.0,79,0.00,,---,0.00,VWS V14.01,2013-12-02 01:23:00,
2013-12-01 19:28:00,43.8,38.0,29.87,SSE,167,0.0,0.0,80,0.00,,---,0.00,VWS V14.01,2013-12-02 01:28:00,
2013-12-01 19:33:00,43.8,38.0,29.86,SSE,167,0.0,0.0,80,0.00,,---,0.00,VWS V14.01,2013-12-02 01:33:00,
2013-12-01 19:38:00,43.8,38.0,29.86,SSE,167,0.0,0.0,80,0.00,,---,0.00,VWS V14.01,2013-12-02 01:38:00,
2013-12-01 19:43:00,43.9,38.1,29.86,SSE,168,0.0,0.0,80,0.00,,---,0.00,VWS V14.01,2013-12-02 01:43:00,
2013-12-01 19:48:00,43.8,38.0,29.86,SSE,167,0.0,0.0,80,0.00,,---,0.00,VWS V14.01,2013-12-02 01:48:00,
2013-12-01 19:53:00,43.8,38.4,29.86,SSE,167,0.0,0.0,81,0.00,,---,0.00,VWS V14.01,2013-12-02 01:53:00,
2013-12-01 19:58:00,43.7,38.3,29.86,SSE,167,0.0,0.0,81,0.00,,---,0.00,VWS V14.01,2013-12-02 01:58:00,
2013-12-01 20:04:00,43.7,38.3,29.86,SSE,167,0.0,0.0,81,0.00,,---,0.00,VWS V14.01,2013-12-02 02:04:00,
2013-12-01 20:09:00,43.7,38.3,29.86,SSE,167,0.0,0.0,81,0.00,,---,0.00,VWS V14.01,2013-12-02 02:09:00,
2013-12-01 20:14:00,43.9,38.1,29.86,SSE,167,0.0,0.0,80,0.00,,---,0.00,VWS V14.01,2013-12-02 02:14:00,
2013-12-01 20:19:00,43.9,38.1,29.86,SSE,167,0.0,0.0,80,0.00,,---,0.00,VWS V14.01,2013-12-02 02:19:00,
2013-12-01 20:24:00,43.8,38.4,29.86,SSE,167,0.0,0.0,81,0.00,,---,0.00,VWS V14.01,2013-12-02 02:24:00,
2013-12-01 20:29:00,43.8,38.4,29.86,SSE,167,0.0,0.0,81,0.00,,---,0.00,VWS V14.01,2013-12-02 02:29:00,
2013-12-01 20:34:00,43.8,38.4,29.85,SSE,167,0.0,0.0,81,0.00,,---,0.00,VWS V14.01,2013-12-02 02:34:00,
2013-12-01 20:39:00,43.9,38.5,29.85,SSE,168,0.0,0.0,81,0.00,,---,0.00,VWS V14.01,2013-12-02 02:39:00,
2013-12-01 20:44:00,44.2,38.8,29.85,SSE,168,0.0,0.0,81,0.00,,---,0.00,VWS V14.01,2013-12-02 02:44:00,
2013-12-01 20:49:00,44.3,38.8,29.85,SSE,167,0.0,0.0,81,0.00,,---,0.00,VWS V14.01,2013-12-02 02:49:00,
2013-12-01 20:54:00,44.4,38.9,29.85,SSE,167,0.0,0.0,81,0.00,,---,0.00,VWS V14.01,2013-12-02 02:54:00,
2013-12-01 20:59:00,44.4,38.9,29.85,SSE,167,0.0,0.0,81,0.00,,---,0.00,VWS V14.01,2013-12-02 02:59:00,
2013-12-01 21:04:00,44.4,38.9,29.84,SSE,168,0.0,0.0,81,0.00,,---,0.00,VWS V14.01,2013-12-02 03:04:00,
2013-12-01 21:09:00,44.4,38.9,29.84,SSE,167,0.0,0.0,81,0.00,,---,0.00,VWS V14.01,2013-12-02 03:09:00,
2013-12-01 21:14:00,44.4,38.9,29.84,SSE,168,0.0,0.0,81,0.00,,---,0.00,VWS V14.01,2013-12-02 03:14:00,
2013-12-01 21:19:00,44.4,38.9,29.84,SSE,168,0.0,0.0,81,0.00,,---,0.00,VWS V14.01,2013-12-02 03:19:00,
2013-12-01 21:24:00,44.5,39.0,29.84,SSE,167,0.0,0.0,81,0.00,,---,0.00,VWS V14.01,2013-12-02 03:24:00,
2013-12-01 21:29:00,44.5,39.4,29.84,SSE,167,0.0,0.0,82,0.00,,---,0.00,VWS V14.01,2013-12-02 03:29:00,
2013-12-01 21:34:00,44.6,39.5,29.83,South,169,0.0,0.0,82,0.00,,---,0.00,VWS V14.01,2013-12-02 03:34:00,
2013-12-01 21:39:00,44.6,39.5,29.83,SSE,167,0.0,0.0,82,0.00,,---,0.00,VWS V14.01,2013-12-02 03:39:00,
2013-12-01 21:44:00,44.7,39.5,29.83,SSE,167,0.0,0.0,82,0.00,,---,0.00,VWS V14.01,2013-12-02 03:44:00,
2013-12-01 21:49:00,44.7,39.5,29.83,SSE,168,0.0,0.0,82,0.00,,---,0.00,VWS V14.01,2013-12-02 03:49:00,
2013-12-01 21:54:00,44.8,39.7,29.83,SSE,168,0.0,0.0,82,0.00,,---,0.00,VWS V14.01,2013-12-02 03:54:00,
2013-12-01 21:59:00,44.9,39.8,29.83,SSE,167,0.0,0.0,82,0.00,,---,0.00,VWS V14.01,2013-12-02 03:59:00,
2013-12-01 22:04:00,45.0,39.8,29.83,SSE,167,0.0,0.0,82,0.00,,---,0.00,VWS V14.01,2013-12-02 04:04:00,
2013-12-01 22:09:00,45.1,39.6,29.83,SSE,167,0.0,0.0,81,0.00,,---,0.00,VWS V14.01,2013-12-02 04:09:00,
2013-12-01 22:14:00,45.2,39.7,29.83,SSE,167,0.0,0.0,81,0.00,,---,0.00,VWS V14.01,2013-12-02 04:14:00,
2013-12-01 22:19:00,45.3,39.8,29.82,SSE,167,0.0,0.0,81,0.00,,---,0.00,VWS V14.01,2013-12-02 04:19:00,
2013-12-01 22:24:00,45.4,39.9,29.82,SSE,167,0.0,0.0,81,0.00,,---,0.00,VWS V14.01,2013-12-02 04:24:00,
2013-12-01 22:29:00,45.4,39.9,29.82,SSE,167,0.0,0.0,81,0.00,,---,0.00,VWS V14.01,2013-12-02 04:29:00,
2013-12-01 22:34:00,45.4,39.9,29.82,SSE,167,0.0,0.0,81,0.00,,---,0.00,VWS V14.01,2013-12-02 04:34:00,
2013-12-01 22:39:00,45.4,39.9,29.82,SSE,168,0.0,0.0,81,0.00,,---,0.00,VWS V14.01,2013-12-02 04:39:00,
2013-12-01 22:44:00,45.3,39.8,29.82,SSE,168,0.0,0.0,81,0.00,,---,0.00,VWS V14.01,2013-12-02 04:44:00,
2013-12-01 22:49:00,45.4,39.6,29.82,SSE,167,0.0,0.0,80,0.00,,---,0.00,VWS V14.01,2013-12-02 04:49:00,
2013-12-01 22:54:00,45.4,39.6,29.82,SSE,167,0.0,0.0,80,0.00,,---,0.00,VWS V14.01,2013-12-02 04:54:00,
2013-12-01 22:59:00,45.5,40.0,29.82,SSE,168,0.0,0.0,81,0.00,,---,0.00,VWS V14.01,2013-12-02 04:59:00,
2013-12-01 23:01:00,45.4,40.2,29.82,SSE,168,0.0,0.0,82,0.00,,---,0.00,VWS V14.01,2013-12-02 05:01:00,
2013-12-01 23:02:00,45.4,40.2,29.82,SSE,168,0.0,0.0,82,0.00,,---,0.00,VWS V14.01,2013-12-02 05:02:00,
2013-12-01 23:07:00,45.2,40.0,29.82,SSE,168,0.0,0.0,82,0.00,,---,0.00,VWS V14.01,2013-12-02 05:07:00,
2013-12-01 23:12:00,45.0,39.8,29.82,South,169,0.0,0.0,82,0.00,,---,0.00,VWS V14.01,2013-12-02 05:12:00,
2013-12-01 23:17:00,45.0,39.8,29.82,SSE,168,0.0,0.0,82,0.00,,---,0.00,VWS V14.01,2013-12-02 05:17:00,
2013-12-01 23:22:00,45.0,39.8,29.82,SSE,167,0.0,0.0,82,0.00,,---,0.00,VWS V14.01,2013-12-02 05:22:00,
2013-12-01 23:27:00,45.0,40.2,29.82,SSE,168,0.0,0.0,83,0.00,,---,0.00,VWS V14.01,2013-12-02 05:27:00,
2013-12-01 23:32:00,45.0,40.2,29.81,SSE,167,0.0,0.0,83,0.00,,---,0.00,VWS V14.01,2013-12-02 05:32:00,
2013-12-01 23:37:00,45.0,40.2,29.81,SSE,168,0.0,0.0,83,0.00,,---,0.00,VWS V14.01,2013-12-02 05:37:00,
2013-12-01 23:42:00,45.0,40.2,29.81,South,169,0.0,0.0,83,0.00,,---,0.00,VWS V14.01,2013-12-02 05:42:00,
2013-12-01 23:47:00,45.0,39.8,29.81,SSE,167,0.0,0.0,82,0.00,,---,0.00,VWS V14.01,2013-12-02 05:47:00,
2013-12-01 23:52:00,45.0,39.8,29.81,SSE,168,0.0,0.0,82,0.00,,---,0.00,VWS V14.01,2013-12-02 05:52:00,
2013-12-01 23:57:00,45.1,40.2,29.81,SSE,167,0.0,0.0,83,0.00,,---,0.00,VWS V14.01,2013-12-02 05:57:00,